Location: De Compagnie
(53.1347°N, 6.1411°E)
Time: 06:28:50
(UTC+00:00)

Daily predictions for brighter satellites

Satellite Brightness Start Highest point End
(mag) Time Altitude Azimuth Time Altitude Azimuth Time Altitude Azimuth
CZ-4B R/B 3.3 17:38:04 10° SE 17:43:20 60° ENE 17:48:46 10° N
Cosmos 2084 4.4 17:41:30 10° S 17:44:35 23° ESE 17:47:40 10° ENE
Cosmos 2297 Rocket 3.9 17:40:37 10° NW 17:45:49 37° WSW 17:50:57 10° S
ISS -3.2 17:42:34 10° W 17:45:52 52° SSW 17:49:09 10° ESE
Okean 2 3.4 17:43:13 10° N 17:47:24 73° ENE 17:51:32 10° SSE
Cosmos 1975 2.8 17:43:45 10° S 17:47:47 76° E 17:51:51 10° NNE
COSMO-SKYMED 1 2.6 17:44:12 10° NNE 17:48:33 67° ESE 17:52:52 10° S
NOSS 7 (H) 4.4 17:45:36 10° NW 17:48:37 65° NE 17:52:23 10° ESE
Cosmos 1763 Rocket 4.0 17:45:20 10° NNW 17:50:21 63° WSW 17:55:21 10° S
Cosmos 1980 Rocket 2.9 17:45:33 10° SSE 17:50:30 32° ESE 17:55:27 10° NE
Okean-O 4.0 17:47:59 10° ESE 17:51:15 21° ENE 17:54:32 10° N
PAYLOAD B 4.3 17:46:11 10° SSE 17:51:42 90° NE 17:57:15 10° NNW
Cosmos 1954 Rocket 3.9 17:48:18 10° SSW 17:53:26 74° ESE 17:58:38 10° NNE
HJ-1C 3.6 17:50:34 10° SE 17:53:32 43° ENE 17:56:33 10° N
Cosmos 1190 Rocket 4.2 17:48:31 10° SSW 17:53:44 81° WNW 17:58:58 10° NNE
CZ-4 R/B 1.9 17:49:53 10° SE 17:53:49 42° ENE 17:57:48 10° N
Cosmos 2369 4.2 17:53:01 10° S 17:58:16 39° ESE 18:03:32 10° NE
SJ-6B 4.1 17:55:38 10° ESE 17:58:28 21° ENE 18:01:21 10° NNE
CZ-4C R/B 4.4 17:56:28 10° N 18:00:44 56° WNW 18:04:51 10° SSW
CZ-2C R/B 4.5 17:55:49 10° N 18:00:48 36° WNW 18:05:51 10° SW
Meteor 2-10 4.5 18:02:05 10° SSE 18:07:25 45° E 18:12:38 10° NNE
USA 215 3.3 18:01:33 10° ENE 18:08:08 87° SSE 18:14:42 10° WSW
SL-16 R/B 3.7 18:06:54 10° SE 18:09:39 14° E 18:12:25 10° ENE
USA 186 3.1 18:06:58 10° ESE 18:09:42 24° ENE 18:12:29 10° N
Cosmos 1844 Rocket 3.8 18:08:29 10° NNW 18:13:25 29° NE 18:17:37 13° E
Cosmos 2285 Rocket 4.2 18:07:21 10° NNW 18:13:36 55° ENE 18:19:50 10° SE
SL-4 R/B 2.4 18:09:38 10° W 18:14:01 67° SSW 18:18:03 13° ESE
ARGOS Delta rocket 4.1 18:08:46 10° NNE 18:14:09 65° E 18:19:16 10° S
Cosmos 1437 Rocket 4.2 18:12:36 10° SE 18:15:02 17° E 18:17:29 10° NE
Cosmos 1741 Rocket 4.3 18:11:14 10° S 18:16:11 43° ESE 18:21:10 10° NE
Cosmos 2278 Rocket 4.3 18:13:29 10° NNW 18:16:22 14° NNE 18:19:15 10° NE
Timation 2 Rocket 4.0 18:10:24 10° NNW 18:17:00 87° ENE 18:23:17 10° SSE
USA-17 4.3 18:17:09 10° NW 18:20:14 69° NE 18:23:14 14° ESE
Okean O Rocket 1.6 18:18:44 10° SSE 18:23:05 89° E 18:27:31 10° NNW
Cosmos 1908 Rocket 4.3 18:20:09 10° SSE 18:23:55 30° E 18:27:43 10° NNE
Cosmos 1814 Rocket 4.0 18:19:33 10° NNW 18:24:50 64° ENE 18:30:01 10° SE
Cosmos 1943 Rocket 4.5 18:24:00 10° NNW 18:26:07 12° N 18:28:14 10° NNE
Nadezhda 4 Rocket 4.2 18:20:14 10° SSE 18:26:16 49° E 18:32:18 10° NNE
Spot 1 4.0 18:23:15 10° NNE 18:27:36 86° WNW 18:31:45 10° SSW
IRIDIUM 103 4.4 18:23:28 10° SSE 18:28:33 56° E 18:33:40 10° NNE
Meteor 2-21 4.5 18:23:05 10° S 18:28:58 57° E 18:34:53 10° NNE
Cosmos 1242 Rocket 2.5 18:25:28 10° SSW 18:29:03 88° WNW 18:32:37 10° NNE
SL-14 R/B 3.4 18:25:41 10° NNW 18:29:38 80° W 18:33:37 10° S
Cosmos 1809 Rocket 4.4 18:25:15 10° S 18:31:17 71° E 18:37:22 10° NNE
Cosmos 2263 Rocket 2.3 18:25:37 10° NNW 18:31:21 82° WSW 18:37:03 10° SSE
Cosmos 1674 Rocket 3.6 18:29:41 10° NNW 18:34:06 87° W 18:38:32 10° S
Cosmos 2227 4.2 18:28:39 10° NNW 18:34:18 71° NE 18:39:33 12° SE
Cosmos 1805 3.2 18:31:58 10° S 18:35:51 88° WNW 18:39:45 10° N
Cosmos 2360 4.4 18:30:20 10° SW 18:36:04 77° WNW 18:41:50 10° NNE
Meteor 2-5 Rocket 3.9 18:30:42 10° N 18:36:05 49° ENE 18:41:16 11° SE
YAOGAN 1 3.2 18:32:45 10° S 18:37:01 59° W 18:41:18 10° NNW
Cosmos 1726 2.0 18:35:53 10° S 18:39:29 65° E 18:43:08 10° NNE
OBJECT-B 0.2 18:38:57 24° SE 18:40:15 57° ENE 18:42:48 10° N
H-2A R/B 3.5 18:39:28 22° E 18:40:39 25° ENE 18:43:52 10° N
MetOp-A 4.3 18:43:45 24° E 18:44:50 28° ENE 18:48:13 10° N
IRIDIUM 106 4.2 18:41:36 10° S 18:46:49 77° E 18:52:03 10° N
Cosmos 1025 Rocket 3.6 18:45:44 10° N 18:49:43 35° ENE 18:51:17 27° ESE
Cosmos 1766 3.1 18:45:54 10° S 18:49:46 67° E 18:53:42 10° NNE
Cosmos 2084 Rocket 3.6 18:46:59 10° NW 18:50:41 49° NNE 18:52:17 29° E
IRS-1C Rocket 4.1 18:46:16 12° SE 18:51:00 61° ENE 18:56:12 10° N
SPOT 1/Viking Rocket 4.3 18:51:29 24° ESE 18:53:37 33° ENE 18:58:12 10° N
Cosmos 1697 Rocket 3.3 18:48:27 10° SW 18:54:00 59° NW 18:59:36 10° NNE
CSL-04 Debris 4.1 18:51:14 10° SSE 18:56:39 82° ENE 19:02:04 10° NNW
Cosmos 1975 Rocket 3.4 18:54:47 10° N 18:59:05 45° ENE 19:00:50 30° SE
Landsat 7 3.8 19:00:02 23° SE 19:02:54 59° ENE 19:07:33 10° N
IGS 5A 3.3 18:59:48 17° SSE 19:02:58 80° ENE 19:07:08 10° NNW
Cosmos 1092 Rocket 4.1 18:57:11 10° SSE 19:03:16 52° E 19:09:20 10° NNE
Resurs 01 Rocket 2.3 19:05:25 32° E 19:06:23 37° ENE 19:10:28 10° N
Cosmos 968 Rocket 3.7 19:06:05 10° S 19:11:05 46° ESE 19:16:04 10° NE
ATLAS 2AS CENTAUR R/B 4.0 19:08:50 10° WNW 19:15:43 37° N 19:21:35 13° ENE
Cosmos 1470 2.7 19:15:56 47° SE 19:16:38 55° E 19:20:24 10° NNE
ISS -1.7 19:19:40 10° W 19:22:07 19° SW 19:22:45 18° SSW
Cosmos 2084 3.6 19:19:54 10° WSW 19:23:40 61° NW 19:25:48 24° NE
Cosmos 2322 Rocket 3.4 19:27:51 25° ENE 19:27:51 25° ENE 19:30:39 10° NE
Ariane Rocket 3.5 19:25:15 37° E 19:26:00 39° ENE 19:30:43 10° N
CSL-04 Rocket 3.9 19:21:40 11° S 19:26:47 68° WSW 19:32:12 10° NNW
Okean-O 2.9 19:24:10 19° S 19:27:19 66° WSW 19:31:45 10° NNW
NOSS 3-4 (A) 4.3 19:21:27 10° NW 19:27:40 45° NNE 19:31:05 28° E
NOSS 3-4 (C) 4.3 19:21:34 10° NW 19:27:46 45° NNE 19:31:11 28° E
ERS-1 Rocket 4.4 19:27:50 22° NE 19:27:51 22° NE 19:31:38 10° N
Terra 3.6 19:28:16 17° NE 19:28:16 17° NE 19:31:00 10° NNE
Resurs 1-3 3.6 19:26:17 28° S 19:28:34 79° WSW 19:32:59 10° NNW
CZ-4 R/B 3.6 19:25:24 10° SSW 19:28:53 26° W 19:32:26 10° NW
S3M 4.4 19:24:45 10° N 19:30:40 41° ENE 19:31:54 37° E
Cosmos 1570 Rocket 4.4 19:26:17 10° NNW 19:31:29 61° WSW 19:34:49 22° S
SJ-6B 3.7 19:30:24 19° SSW 19:32:47 45° W 19:36:26 10° NNW
Cosmos 1980 Rocket 2.8 19:28:43 10° SW 19:34:16 57° NW 19:39:49 10° NNE
JB-3 4.2 19:32:58 10° NNE 19:37:06 87° ESE 19:38:36 38° SSW
Cosmos 1627 Rocket 4.3 19:33:15 10° S 19:39:21 80° E 19:45:30 10° NNE
SPOT 5 4.0 19:41:30 28° NE 19:41:30 28° NE 19:45:07 10° N
USA 186 3.7 19:40:04 17° SW 19:41:55 29° W 19:44:54 10° NNW
deb Chang Zheng 4 3.4 19:41:19 57° S 19:42:05 78° WSW 19:46:16 10° NNW
Cosmos 1428 Rocket 4.5 19:40:36 10° S 19:46:48 85° WNW 19:53:06 10° N
Cosmos 836 Rocket 4.4 19:41:58 10° NNW 19:47:20 85° ENE 19:48:31 56° SE
Meteor 1-24 Rocket 4.0 19:42:41 10° NNW 19:47:54 59° W 19:51:25 21° S
Cosmos 2278 3.9 19:43:51 10° SW 19:49:32 72° NW 19:55:14 10° NNE
Spot 2 Rocket 4.5 19:50:18 31° NE 19:50:18 31° NE 19:54:21 10° N
Cosmos 1437 Rocket 3.4 19:47:09 10° SSW 19:50:50 50° WNW 19:54:30 10° N
USA 215 3.5 19:47:18 27° ENE 19:51:04 65° N 19:57:31 10° W
SL-16 R/B 2.0 19:47:06 10° SSW 19:52:43 70° ESE 19:58:23 10° NE
Cosmos 1417 Rocket 4.4 19:46:56 10° N 19:53:03 65° ENE 19:54:18 53° SE
SL-4 R/B 3.4 19:49:07 10° W 19:53:12 33° SSW 19:53:27 32° SSW
Meteor 1-21 Rocket 4.3 19:49:54 10° N 19:55:19 52° ENE 19:55:28 52° ENE
Cosmos 1844 Rocket 2.7 19:52:13 10° NNW 19:57:55 79° WSW 19:59:17 54° SSE
Cosmos 1703 4.4 19:55:20 10° N 19:57:43 34° N 19:57:43 34° N
Meteor 1-22 Rocket 4.4 19:56:51 10° SSW 20:02:13 68° WNW 20:07:51 10° N
Cosmos 2278 Rocket 3.4 19:57:35 10° NNW 20:02:29 29° NE 20:03:03 28° NE
Cosmos 2026 Rocket 4.1 19:58:24 10° SSW 20:04:27 73° WNW 20:10:33 10° N
Cosmos 921 Rocket 4.2 20:03:00 10° NNW 20:06:11 35° NNE 20:06:11 35° NNE
Cosmos 1553 Rocket 4.0 20:01:02 10° NNW 20:07:23 82° W 20:09:43 42° S
Cosmos 1300 Rocket 4.1 20:08:30 51° N 20:08:30 51° N 20:11:50 10° N
Cosmos 1782 Rocket 4.3 20:06:54 25° SW 20:09:13 51° WNW 20:13:30 10° N
MOS 1 4.4 20:08:42 47° S 20:10:21 72° WSW 20:16:03 10° NNW
Cosmos 1943 Rocket 4.0 20:08:34 10° NNW 20:12:17 18° NNE 20:13:28 17° NE
H-2A R/B 3.4 20:15:56 40° W 20:15:56 40° W 20:19:37 10° NNW
USA 281 3.3 20:16:22 55° E 20:17:15 60° NE 20:23:43 10° NNW
Cosmos 1844 3.8 20:13:59 10° NW 20:19:30 66° WSW 20:20:06 61° SSW
Cosmos 773 Rocket 4.0 20:19:35 10° NNW 20:24:31 75° N 20:24:31 75° N
USA 245 4.3 20:29:28 81° E 20:29:35 81° ENE 20:35:14 10° NNW
Cosmos 2315 Rocket 4.1 20:25:14 10° N 20:31:20 63° ENE 20:31:20 63° ENE
MetOp-B 4.2 20:31:47 73° WSW 20:31:48 73° WSW 20:37:12 10° NNW
SPOT 1/Viking Rocket 4.3 20:32:06 44° SW 20:32:54 47° W 20:37:54 10° NNW
SPOT 3 Rocket 3.8 20:37:48 66° NNW 20:37:48 66° NNW 20:42:13 10° NNW
SeaSat 1 4.1 20:38:34 23° NNE 20:38:34 23° NNE 20:41:58 10° NNW
Resurs 01 Rocket 3.1 20:42:59 33° W 20:42:59 33° W 20:46:56 10° NNW
Cosmos 2360 Rocket 3.9 20:46:44 22° NE 20:46:44 22° NE 20:48:38 10° NNE
Cosmos 1655 Rocket 4.2 21:03:22 66° N 21:03:22 66° N 21:08:45 10° N
Ariane Rocket 4.1 21:05:26 38° W 21:05:26 38° W 21:09:46 10° NNW
Terra 3.3 21:07:10 34° NNW 21:07:10 34° NNW 21:09:52 10° NNW
ERS-1 Rocket 4.0 21:07:50 43° NNW 21:07:50 43° NNW 21:11:13 10° NNW
ATLAS 2AS CENTAUR R/B 3.3 21:01:11 10° NW 21:08:15 47° NNE 21:09:00 45° NE
Cosmos 2322 Rocket 2.8 21:09:30 54° NW 21:09:30 54° NW 21:15:01 10° NNE
Gbstr 26 Del rocket 4.5 21:09:51 10° W 21:17:10 74° SW 21:17:10 74° SW
SPOT 5 4.4 21:20:43 34° NW 21:20:43 34° NW 21:23:38 10° NNW
NOSS 3-4 (A) 3.8 21:12:22 10° NW 21:18:30 73° W 21:18:30 73° W
NOSS 3-4 (C) 3.8 21:12:28 10° NW 21:18:36 73° WNW 21:18:36 73° WNW
Cosmos 2266 Rocket 4.3 21:21:36 63° NW 21:21:36 63° NW 21:27:32 10° N
USA 215 3.5 21:34:39 66° NW 21:34:39 66° NW 21:40:23 10° WNW
SL-16 R/B 3.8 21:32:16 10° WSW 21:37:19 32° NW 21:42:24 10° NNE
Cosmos 2278 Rocket 3.5 21:41:30 10° NNW 21:44:53 37° NW 21:44:53 37° NW
SJ 16-02 4.4 21:58:24 10° N 21:58:24 10° N 21:58:28 10° N
Cosmos 1943 Rocket 3.7 21:51:58 10° NNW 21:54:57 30° N 21:54:57 30° N
Cosmos 2369 Rocket 4.0 21:56:23 10° NNW 22:00:00 26° NNE 22:00:00 26° NNE
ADEOS Rocket 4.2 22:04:13 33° N 22:04:13 33° N 22:07:16 10° NNW
USA 281 4.3 22:03:14 36° W 22:03:14 36° W 22:08:09 10° NW
Cosmos 2333 Rocket 4.0 22:08:01 26° NNE 22:08:01 26° NNE 22:10:33 10° NNE
Cosmos 2219 Rocket 4.2 22:10:23 21° NNE 22:10:23 21° NNE 22:12:17 10° NNE
Cosmos 2360 Rocket 4.0 22:28:28 28° NNW 22:28:28 28° NNW 22:32:28 10° NNE
ATLAS 2AS CENTAUR R/B 4.0 22:52:32 10° NW 22:56:23 34° NW 22:56:23 34° NW
SL-16 R/B 4.2 23:45:23 26° NE 23:45:23 26° NE 23:50:18 10° N
Cosmos 2369 Rocket 4.4 23:40:16 10° NNW 23:41:46 19° NW 23:41:46 19° NW
Cosmos 2333 Rocket 4.4 23:50:00 19° NNW 23:50:36 19° NNW 23:54:37 10° NNE
Cosmos 2219 Rocket 4.3 23:52:05 21° NNW 23:52:05 21° NNW 23:55:58 10° NNE
